This demonstration page uses our WeatherBlox Daily Observations layout. Learn more.

Left ArrowRight Arrow

Hourly Observations for December 6, 2020

Temp ( °F °C ) Dew Point ( °F °C ) Humidity (%) Winds ( mph kmh ) Pressure ( in mb ) Visibility ( mi km ) Precip ( " mm )
12:56 am 00:56 Clear 31 -0.6 23 -5 72 72 NW 9 15 30.20 1023 10 16 0.00 0.00
1:56 am 01:56 Clear 27 -2.8 21 -6.1 78 78 NW 8 13 30.20 1023 10 16 0.00 0.00
2:56 am 02:56 Clear 28 -2.2 22 -5.6 78 78 NW 7 11 30.20 1023 10 16 0.00 0.00
3:56 am 03:56 Clear 27 -2.8 21 -6.1 78 78 NW 8 13 30.21 1023 10 16 0.00 0.00
4:56 am 04:56 Clear 24 -4.4 20 -6.7 84 84 NW 7 11 30.21 1023 10 16 0.00 0.00
5:56 am 05:56 Clear 28 -2.2 22 -5.6 78 78 NW 10 17 30.22 1023 10 16 0.00 0.00
6:56 am 06:56 Clear 27 -2.8 21 -6.1 78 78 NW 9 15 30.22 1023 10 16 0.00 0.00
7:56 am 07:56 Sunny 26 -3.3 20 -6.7 78 78 NNW 9 15 30.24 1024 10 16 0.00 0.00
8:56 am 08:56 Sunny 28 -2.2 22 -5.6 78 78 NW 8 13 30.24 1024 10 16 0.00 0.00
9:56 am 09:56 Sunny 35 1.7 26 -3.3 70 70 NNW 8 13 30.24 1024 10 16 0.00 0.00
10:56 am 10:56 Sunny 41 5 28 -2.2 60 60 NNW 9 15 30.23 1024 10 16 0.00 0.00
11:56 am 11:56 Sunny 45 7.2 29 -1.7 54 54 NNW 8 13 30.21 1023 10 16 0.00 0.00
12:56 pm 12:56 Sunny 48 8.9 30 -1.1 50 50 NNW 7 11 30.19 1022 10 16 0.00 0.00
1:56 pm 13:56 Sunny 50 10 29 -1.7 44 44 VRB 6 9 30.17 1022 10 16 0.00 0.00
2:56 pm 14:56 Sunny 52 11.1 27 -2.8 38 38 N 8 13 30.16 1021 10 16 0.00 0.00
3:56 pm 15:56 Sunny 51 10.6 27 -2.8 39 39 N 9 15 30.17 1022 10 16 0.00 0.00
4:56 pm 16:56 Sunny 46 7.8 27 -2.8 47 47 NNE 6 9 30.19 1022 10 16 0.00 0.00
5:56 pm 17:56 Clear 41 5 25 -3.9 53 53 Calm 30.19 1022 10 16 0.00 0.00
6:56 pm 18:56 Clear 40 4.4 25 -3.9 55 55 Calm 30.19 1022 10 16 0.00 0.00
7:56 pm 19:56 Clear 36 2.2 25 -3.9 64 64 Calm 30.21 1023 10 16 0.00 0.00
8:56 pm 20:56 Clear 35 1.7 24 -4.4 64 64 WSW 7 11 30.20 1023 10 16 0.00 0.00
9:56 pm 21:56 Clear 31 -0.6 24 -4.4 76 76 WNW 7 11 30.20 1023 10 16 0.00 0.00
10:56 pm 22:56 Clear 29 -1.7 23 -5 78 78 W 3 6 30.19 1023 10 16 0.00 0.00
11:56 pm 23:56 Clear 30 -1.1 23 -5 75 75 SW 7 11 30.18 1022 10 16 0.00 0.00

Powered by AerisWeather